Location: Unspecified
(39.9360°N, 0.0000°E)
Time: 03:16:53
(UTC+00:00)

CUBEBUG 2 - Visible Passes

Search period start: 05 April 2026 00:00
Search period end: 15 April 2026 00:00
Orbit: 549 x 628 km, 97.9° (Epoch: 29 March)

Date Brightness Start Highest point End Pass type
(mag) Time Alt. Az. Time Alt. Az. Time Alt. Az.
5 Apr ? 02:59:43 10° N 03:01:17 20° NNW 03:01:17 20° NNW visible
6 Apr ? 01:32:04 10° NE 01:32:18 11° NE 01:32:18 11° NE visible
6 Apr ? 03:07:11 10° N 03:08:48 19° NNW 03:08:48 19° NNW visible
7 Apr ? 01:39:10 10° NE 01:39:47 13° NE 01:39:47 13° NE visible
7 Apr ? 03:14:39 10° NNW 03:16:18 18° NNW 03:16:18 18° NNW visible
8 Apr ? 01:46:18 10° NNE 01:47:16 15° NE 01:47:16 15° NE visible
8 Apr ? 03:22:10 10° NNW 03:23:46 17° NW 03:23:46 17° NW visible
9 Apr ? 01:53:27 10° NNE 01:54:44 18° NE 01:54:44 18° NE visible
9 Apr ? 03:29:43 10° NNW 03:31:14 16° NW 03:31:14 16° NW visible
10 Apr ? 02:00:38 10° NNE 02:02:11 21° NNE 02:02:11 21° NNE visible
10 Apr ? 03:37:20 10° NNW 03:38:41 14° NW 03:38:41 14° NW visible
11 Apr ? 02:07:50 10° NNE 02:09:37 24° NNE 02:09:37 24° NNE visible
11 Apr ? 03:45:06 10° NW 03:46:07 12° NW 03:46:07 12° NW visible
12 Apr ? 02:15:02 10° NNE 02:17:03 27° NNE 02:17:03 27° NNE visible
12 Apr ? 03:53:14 10° NW 03:53:32 10° NW 03:53:32 10° NW visible
13 Apr ? 02:22:15 10° NNE 02:24:27 30° NNE 02:24:27 30° NNE visible
14 Apr ? 02:29:30 10° N 02:31:51 32° N 02:31:51 32° N visible
